Location: Handeloh
(53.2500°N, 9.8330°E)
Time: 21:17:04
(UTC+01:00)

Envisat - Visible Passes

Search period start: 22 February 2019 00:00
Search period end: 04 March 2019 00:00
Orbit: 764 x 766 km, 98.2° (Epoch: 22 February)

Date Brightness Start Highest point End Pass type
(mag) Time Alt. Az. Time Alt. Az. Time Alt. Az.
22 Feb 3.0 18:40:50 10° SSE 18:45:55 85° ENE 18:51:02 10° NNW visible
22 Feb 5.8 20:22:17 10° SW 20:25:38 17° W 20:28:59 10° NW visible
23 Feb 6.0 06:44:11 10° NE 06:47:48 19° E 06:51:25 10° SE visible
23 Feb 4.8 19:43:55 10° SSW 19:48:27 32° W 19:53:03 10° NNW visible
24 Feb 3.6 19:06:28 10° S 19:11:30 62° WSW 19:16:33 10° NNW visible
24 Feb 6.3 20:50:30 10° W 20:51:35 11° W 20:52:41 10° WNW visible
25 Feb 3.0 18:29:40 10° SSE 18:34:43 71° ENE 18:39:48 10° NNW visible
25 Feb 5.6 20:10:28 10° SW 20:14:17 21° W 20:18:06 10° NW visible
26 Feb 6.2 06:33:21 10° NE 06:36:26 16° E 06:39:31 10° ESE visible
26 Feb 4.5 19:32:25 10° SSW 19:37:10 39° W 19:41:57 10° NNW visible
27 Feb 3.3 18:55:10 10° S 19:00:15 75° WSW 19:05:22 10° NNW visible
27 Feb 6.1 20:37:48 10° WSW 20:40:11 13° W 20:42:35 10° NW visible
28 Feb 5.3 19:58:46 10° SSW 20:02:56 25° W 20:07:08 10° NW visible
01 Mar 6.4 06:22:43 10° NE 06:25:03 13° E 06:27:23 10° ESE visible
01 Mar 4.1 19:20:59 10° S 19:25:53 47° W 19:30:49 10° NNW visible
02 Mar 3.1 18:43:56 10° SSE 18:49:01 89° WSW 18:54:09 10° NNW visible
02 Mar 5.9 20:25:42 10° SW 20:28:48 16° W 20:31:56 10° NW visible
03 Mar 5.0 19:47:09 10° SSW 19:51:37 30° W 19:56:06 10° NNW visible
